When you browse on this site, cookies collect data to enhance your experience and personalize the content and advertising you see.
Visit our Privacy Policy to learn more. By continuing to use the site, you agree to this use of cookies and data.
  • In Latvia
  • List of Countries
  • For 7 days
  • Water Temperature
  • Weather Map
  • Weather Widgets
  • user-avatar
    Login

    Hourly Weather Korçe

    Today, 23 February, Sunday

    Time Temperature Precipitation Wind Pressure Humidity
    00:00 -1°C° 0 mm 1 mps 671 mmHg 67%
    01:00 -1°C° 0 mm 1 mps 672 mmHg 66%
    02:00 0°C° 0 mm 1 mps 671 mmHg 64%
    03:00 0°C° 0 mm 1 mps 671 mmHg 62%
    04:00 0°C° 0 mm 1 mps 670 mmHg 60%
    05:00 0°C° 0 mm 1 mps 671 mmHg 59%
    06:00 0°C° 0 mm 1 mps 671 mmHg 58%
    07:00 +1°C° 0 mm 1 mps 671 mmHg 56%
    08:00 +3°C° 0 mm 1 mps 671 mmHg 51%
    09:00 +5°C° 0 mm 1 mps 672 mmHg 45%
    10:00 +7°C° 0 mm 1 mps 672 mmHg 39%
    11:00 +8°C° 0 mm 1 mps 672 mmHg 39%
    12:00 +9°C° 0 mm 1 mps 672 mmHg 38%
    13:00 +10°C° 0 mm 2 mps 672 mmHg 37%
    14:00 +10°C° 0 mm 1 mps 672 mmHg 43%
    15:00 +10°C° 0 mm 1 mps 671 mmHg 49%
    16:00 +9°C° 0 mm 1 mps 671 mmHg 55%
    17:00 +8°C° 0 mm 1 mps 670 mmHg 58%
    18:00 +6°C° 0 mm 1 mps 670 mmHg 60%
    19:00 +5°C° 0 mm 1 mps 670 mmHg 63%
    20:00 +5°C° 0 mm 1 mps 670 mmHg 61%
    21:00 +5°C° 0 mm 1 mps 669 mmHg 59%
    22:00 +5°C° 0 mm 1 mps 669 mmHg 57%
    23:00 +4°C° 0 mm 1 mps 669 mmHg 55%

    Tomorrow, 24 February, Monday

    Time Temperature Precipitation Wind Pressure Humidity
    00:00 +4°C° 0 mm 1 mps 669 mmHg 53%
    01:00 +4°C° 0 mm 1 mps 669 mmHg 51%
    02:00 +4°C° 0 mm 1 mps 668 mmHg 51%
    03:00 +3°C° 0 mm 1 mps 667 mmHg 52%
    04:00 +3°C° 0 mm 1 mps 667 mmHg 52%
    05:00 +3°C° 0 mm 1 mps 667 mmHg 54%
    06:00 +3°C° 0 mm 1 mps 667 mmHg 55%
    07:00 +3°C° 0 mm 1 mps 667 mmHg 57%
    08:00 +4°C° 0 mm 2 mps 667 mmHg 56%
    09:00 +7°C° 0 mm 2 mps 668 mmHg 54%
    10:00 +9°C° 0 mm 2 mps 668 mmHg 53%
    11:00 +9°C° 0 mm 2 mps 668 mmHg 52%
    12:00 +10°C° 0 mm 2 mps 668 mmHg 52%
    13:00 +12°C° 0 mm 2 mps 668 mmHg 51%
    14:00 +12°C° 0 mm 2 mps 668 mmHg 53%
    15:00 +10°C° 0 mm 2 mps 668 mmHg 55%
    16:00 +11°C° 0 mm 1 mps 668 mmHg 58%
    17:00 +10°C° 0 mm 1 mps 668 mmHg 62%
    18:00 +8°C° 0 mm 1 mps 668 mmHg 66%
    19:00 +7°C° 0 mm 1 mps 668 mmHg 70%
    20:00 +7°C° 0 mm 1 mps 668 mmHg 69%
    21:00 +6°C° 0 mm 1 mps 668 mmHg 68%
    22:00 +5°C° 0 mm 2 mps 668 mmHg 67%
    23:00 +5°C° 0 mm 2 mps 668 mmHg 66%

    Day after tomorrow, 25 February, Tuesday

    Time Temperature Precipitation Wind Pressure Humidity
    00:00 +5°C° 0 mm 2 mps 668 mmHg 65%
    01:00 +5°C° 0 mm 2 mps 668 mmHg 64%
    02:00 +5°C° 0 mm 2 mps 667 mmHg 63%
    03:00 +5°C° 0 mm 2 mps 667 mmHg 62%
    04:00 +5°C° 0 mm 2 mps 667 mmHg 61%
    05:00 +5°C° 0 mm 2 mps 667 mmHg 61%
    06:00 +6°C° 0 mm 1 mps 667 mmHg 61%
    07:00 +6°C° 0 mm 1 mps 667 mmHg 62%
    08:00 +7°C° 0 mm 2 mps 667 mmHg 59%
    09:00 +9°C° 0 mm 2 mps 668 mmHg 56%
    10:00 +12°C° 0 mm 2 mps 668 mmHg 52%
    11:00 +12°C° 0 mm 3 mps 668 mmHg 51%
    12:00 +12°C° 0 mm 3 mps 668 mmHg 50%
    13:00 +13°C° 0 mm 3 mps 668 mmHg 49%
    14:00 +12°C° 0 mm 3 mps 667 mmHg 53%
    15:00 +11°C° 0 mm 3 mps 666 mmHg 58%
    16:00 +11°C° 0 mm 3 mps 666 mmHg 62%
    17:00 +9°C° 0 mm 2 mps 665 mmHg 72%
    18:00 +7°C° 0 mm 2 mps 665 mmHg 81%
    19:00 +6°C° 0 mm 2 mps 664 mmHg 90%
    20:00 +5°C° 0 mm 2 mps 664 mmHg 92%
    21:00 +5°C° 0 mm 2 mps 664 mmHg 93%
    22:00 +4°C° 0 mm 2 mps 664 mmHg 95%
    23:00 +3°C° 0 mm 3 mps 663 mmHg 95%

    26 February, Wednesday

    Time Temperature Precipitation Wind Pressure Humidity
    00:00 +3°C° 0 mm 3 mps 663 mmHg 95%
    01:00 +3°C° 0 mm 3 mps 662 mmHg 95%
    02:00 +3°C° 0 mm 3 mps 662 mmHg 95%
    03:00 +2°C° 0 mm 3 mps 661 mmHg 94%
    04:00 +2°C° 0 mm 3 mps 661 mmHg 94%
    05:00 +2°C° 0 mm 3 mps 661 mmHg 94%
    06:00 +2°C° 0 mm 3 mps 661 mmHg 94%
    07:00 +2°C° 0 mm 3 mps 660 mmHg 94%
    08:00 +4°C° 0 mm 3 mps 660 mmHg 88%
    09:00 +5°C° 0 mm 4 mps 660 mmHg 82%
    10:00 +6°C° 0 mm 4 mps 661 mmHg 76%
    11:00 +6°C° 0.1 mm 4 mps 660 mmHg 76%
    12:00 +7°C° 0.1 mm 4 mps 660 mmHg 75%
    13:00 +7°C° 0.1 mm 4 mps 659 mmHg 74%
    14:00 +7°C° 0.1 mm 4 mps 659 mmHg 75%
    15:00 +6°C° 0.1 mm 4 mps 658 mmHg 76%
    16:00 +6°C° 0.1 mm 4 mps 658 mmHg 77%
    17:00 +5°C° 0.1 mm 4 mps 657 mmHg 83%
    18:00 +4°C° 0.1 mm 3 mps 657 mmHg 89%
    19:00 +3°C° 0.1 mm 3 mps 657 mmHg 95%
    20:00 +3°C° 0.1 mm 3 mps 657 mmHg 94%
    21:00 +3°C° 0.1 mm 3 mps 657 mmHg 94%
    22:00 +3°C° 0.1 mm 3 mps 657 mmHg 94%
    23:00 +3°C° 0.2 mm 3 mps 657 mmHg 94%

    27 February, Thursday

    Time Temperature Precipitation Wind Pressure Humidity
    00:00 +4°C° 0.2 mm 2 mps 656 mmHg 94%
    01:00 +3°C° 0.2 mm 2 mps 656 mmHg 94%
    02:00 +2°C° 0.7 mm 3 mps 655 mmHg 95%
    03:00 +2°C° 0.7 mm 3 mps 654 mmHg 95%
    04:00 +1°C° 0.7 mm 4 mps 654 mmHg 95%
    05:00 +1°C° 4.8 mm 3 mps 653 mmHg 96%
    06:00 0°C° 4.8 mm 3 mps 653 mmHg 98%
    07:00 -1°C° 4.8 mm 2 mps 652 mmHg 99%
    08:00 -1°C° 2.1 mm 2 mps 652 mmHg 99%
    09:00 -1°C° 2.1 mm 2 mps 653 mmHg 99%
    10:00 -2°C° 2.1 mm 2 mps 653 mmHg 99%
    11:00 -1°C° 0.3 mm 2 mps 653 mmHg 97%
    12:00 -1°C° 0.3 mm 2 mps 653 mmHg 96%
    13:00 -1°C° 0.3 mm 2 mps 653 mmHg 94%
    14:00 -1°C° 0.2 mm 2 mps 653 mmHg 94%
    15:00 -1°C° 0.2 mm 2 mps 653 mmHg 93%
    16:00 -1°C° 0.2 mm 2 mps 654 mmHg 93%
    17:00 -1°C° 0.2 mm 2 mps 654 mmHg 94%
    18:00 -1°C° 0.2 mm 2 mps 655 mmHg 95%
    19:00 -2°C° 0.2 mm 2 mps 655 mmHg 97%
    20:00 -2°C° 0.1 mm 2 mps 656 mmHg 96%
    21:00 -2°C° 0.1 mm 3 mps 657 mmHg 96%
    22:00 -2°C° 0.1 mm 3 mps 657 mmHg 96%
    23:00 -2°C° 0.1 mm 3 mps 658 mmHg 96%

    28 February, Friday

    Time Temperature Precipitation Wind Pressure Humidity
    00:00 -3°C° 0.1 mm 2 mps 658 mmHg 95%
    01:00 -3°C° 0.1 mm 2 mps 658 mmHg 95%
    02:00 -4°C° 0 mm 2 mps 659 mmHg 94%
    03:00 -4°C° 0 mm 2 mps 659 mmHg 94%
    04:00 -5°C° 0 mm 2 mps 659 mmHg 93%
    05:00 -5°C° 0 mm 2 mps 659 mmHg 91%
    06:00 -5°C° 0 mm 2 mps 660 mmHg 88%
    07:00 -5°C° 0 mm 2 mps 661 mmHg 86%
    08:00 -4°C° 0 mm 2 mps 661 mmHg 81%
    09:00 -2°C° 0 mm 3 mps 662 mmHg 77%
    10:00 -1°C° 0 mm 3 mps 663 mmHg 72%
    11:00 0°C° 0 mm 3 mps 664 mmHg 69%
    12:00 +1°C° 0 mm 3 mps 664 mmHg 67%
    13:00 +1°C° 0 mm 3 mps 664 mmHg 64%
    14:00 +1°C° 0 mm 3 mps 665 mmHg 65%
    15:00 +2°C° 0 mm 2 mps 665 mmHg 66%
    16:00 +2°C° 0 mm 2 mps 665 mmHg 67%
    17:00 +1°C° 0 mm 2 mps 665 mmHg 68%
    18:00 -1°C° 0 mm 2 mps 665 mmHg 69%
    19:00 -1°C° 0 mm 1 mps 665 mmHg 71%
    20:00 -1°C° 0 mm 1 mps 666 mmHg 69%
    21:00 -1°C° 0 mm 1 mps 666 mmHg 68%
    22:00 -1°C° 0 mm 1 mps 667 mmHg 67%
    23:00 -3°C° 0 mm 2 mps 667 mmHg 66%
    Show more